Location: Drocourt
(49.0571°N, 1.7669°E)
Time: 00:04:22
(UTC+00:00)

SR - Pass Details

Date: 14 April 2024
Orbit: 579 x 859 km, 66.7° (Epoch: 25 May)

Event Time Altitude Azimuth Distance (km) Brightness Sun altitude
Rises 03:16:27 0° 209° (SSW) 3,368 - -16.4°
Reaches altitude 10° 03:18:57 10° 208° (SSW) 2,409 - -16.1°
Exits shadow 03:20:46 21° 206° (SSW) 1,734 ? -15.9°
Maximum altitude 03:24:31 78° 123° (ESE) 803 ? -15.4°
Drops below altitude 10° 03:29:41 10° 38° (NE) 2,251 ? -14.7°
Sets 03:31:58 0° 37° (NE) 3,131 ? -14.4°
